sat.trackr.live / text

‹ back to catalog

STARLINK-3926

NORAD 52543 · 2022-051L

PAYLOAD ACTIVE UNKNOWN

§ Identity

Operator
Country
US
Launch date
2022-05-13
Launch site
AFWTR
Launch vehicle
Mass (kg)
RCS (m²)

Purposes: comms

External: N2YO · Heavens-Above · Gunter

§ Orbital elements

Epoch: 2026-05-25T00:00:21.447072Z

Period
95.44 min
Inclination
53.2137°
Eccentricity
0.0001036
Mean motion
15.08842974 rev/d
Perigee alt
539.0 km
Apogee alt
540.5 km
Semi-major
6,917.9 km
B*
-2.5253e-5
RAAN
146.5472°
Arg perigee
74.5661°
Mean anomaly
285.5445°
Rev number
22,296

§ Raw data

STARLINK-39261 52543U 22051L   26145.00024823 -.00000690  00000+0 -25253-4 0  99932 52543  53.2137 146.5472 0001036  74.5661 285.5445 15.08842974222962

JSON: /api/v1/satellites/52543 · /tle

For live sub-satellite position, see the globe view (requires WebGL).

§ Visibility from observer

Set your observer location to see the next 7 days of passes ≥ 10°. The values pass through the URL so the page stays shareable.

No JS? Fill the form by hand. The geolocation button needs JavaScript.